Photometre #359[Standard_N] Warsaw_UW AOT

File : 20221127_359.hum

27/11/2022,07:38:59,TEMP=2.0,BA=5.64,STAT.D=17.0,ExtBa=13.90
27/11/2022,07:53:59,TEMP=2.2,BA=5.64,STAT.D=17.0,ExtBa=13.90
27/11/2022,08:08:59,TEMP=2.3,BA=5.64,STAT.D=17.0,ExtBa=13.90
27/11/2022,08:41:52,TEMP=2.9,BA=5.64,STAT.D=17.0,ExtBa=13.80
27/11/2022,09:08:59,TEMP=3.0,BA=5.64,STAT.D=17.0,ExtBa=13.90
27/11/2022,09:24:00,TEMP=3.4,BA=5.64,STAT.F,ExtBa=13.80
27/11/2022,09:38:59,TEMP=3.6,BA=5.64,STAT.D=18.0,ExtBa=13.80
27/11/2022,09:53:59,TEMP=3.7,BA=5.64,STAT.D=18.0,ExtBa=13.90
27/11/2022,10:09:00,TEMP=3.6,BA=5.64,STAT.D=18.0,ExtBa=13.90
27/11/2022,10:39:00,TEMP=4.0,BA=5.64,STAT.D=18.0,ExtBa=13.90
27/11/2022,10:40:24,TEMP=4.3,BA=5.60,STAT.b=18.0
27/11/2022,10:54:13,TEMP=4.2,BA=5.64,STAT.D=17.0,ExtBa=13.90
27/11/2022,11:09:15,TEMP=4.4,BA=5.64,STAT.D=17.0,ExtBa=13.90
27/11/2022,11:10:40,TEMP=4.6,BA=5.60,STAT.b=17.0
27/11/2022,11:24:15,TEMP=4.4,BA=5.64,STAT.F,ExtBa=13.90
27/11/2022,11:38:59,TEMP=4.6,BA=5.64,STAT.D=18.0,ExtBa=13.90
27/11/2022,11:40:23,TEMP=4.9,BA=5.60,STAT.b=18.0
27/11/2022,12:09:15,TEMP=4.6,BA=5.64,STAT.D=18.0,ExtBa=13.80
27/11/2022,12:23:59,TEMP=4.4,BA=5.64,STAT.F,ExtBa=13.90
27/11/2022,12:25:24,TEMP=4.8,BA=5.64,STAT.b=18.0
27/11/2022,12:39:13,TEMP=4.4,BA=5.64,STAT.D=18.0,ExtBa=13.80
27/11/2022,12:54:15,TEMP=4.4,BA=5.64,STAT.D=17.0,ExtBa=13.80
27/11/2022,13:09:00,TEMP=4.3,BA=5.64,STAT.D=18.0,ExtBa=13.90